Regional Weather Roundup
Issued by NWS

Home | Current Version | Previous Version | Graphics & Text | Print | Product List | Glossary On
Versions: 1 2 3 4 5 6 7 8 9 10 11 12 13 14 15 16 17 18 19 20 21 22 23 24 25 26 27 28 29 30 31 32 33 34 35 36 37 38 39 40 41 42 43 44 45 46 47 48 49 50
000
ASUS43 KLMK 271602
RWRKY
KENTUCKY REGIONAL WEATHER ROUNDUP
NATIONAL WEATHER SERVICE LOUISVILLE KY
1100 AM EST FRI FEB 27 2015

NOTE "FAIR" INDICATES FEW OR NO CLOUDS BELOW 12,000 FEET
WITH NO SIGNIFICANT WEATHER AND/OR OBSTRUCTIONS TO VISIBILITY.

KYZ001>023-026-027-061>063-070>075-271700-
WESTERN AND SOUTH CENTRAL KENTUCKY

CITY           SKY/WX    TMP DP  RH WIND       PRES   REMARKS
PADUCAH        SUNNY     17   7  64 N8        30.63F WCI   7
HENDERSON      SUNNY     18   9  68 NW6       30.66S WCI   9
OWENSBORO      SUNNY     18   9  68 VRB5      30.65R WCI  11
HOPKINSVILLE   SUNNY     20  10  65 N10       30.61R WCI   8
BOWLING GREEN  CLOUDY    22  10  60 NE8       30.61R WCI  12
GLASGOW        NOT AVBL
$$

KYZ024-025-028>034-038-045-046-053-271700-
NORTH CENTRAL KENTUCKY

CITY           SKY/WX    TMP DP  RH WIND       PRES   REMARKS
LOUISVILLE/SDF MOSUNNY   21   5  50 VRB5      30.62R WCI  15
LOUISVILLE/LOU SUNNY     20   4  50 CALM      30.62R
FORT KNOX      SUNNY     20   4  51 VRB3      30.59R
$$

KYZ035>037-039>044-047>052-055>060-089>105-271700-
NORTHEAST KENTUCKY

CITY           SKY/WX    TMP DP  RH WIND       PRES   REMARKS
LEXINGTON      PTSUNNY   16   7  67 NW8       30.56R WCI   5
COVINGTON      SUNNY     16   1  51 CALM      30.57R
FRANKFORT      SUNNY     18   5  57 VRB5      30.57R WCI  11
$$

KYZ054-064>069-076>088-106>120-271700-
SOUTHEAST KENTUCKY

CITY           SKY/WX    TMP DP  RH WIND       PRES   REMARKS
JACKSON        SUNNY     18   4  54 CALM      30.48S
LONDON         SUNNY     20   3  48 NE5       30.51R WCI  13
SOMERSET       NOT AVBL
MIDDLESBORO    MOSUNNY   22  12  66 N8        30.50R WCI  12
MONTICELLO     SUNNY     22   9  57 N9        30.57R WCI  12
$$



USA.gov is the U.S. government's official web portal to all federal, state and local government web resources and services.